Theta_e
327 322 321 322 323 326 331 334 338 348 352 353 353 350 354 352 349 346 344 343 342 342 342 344 345 345 345 346 344 347 348 347 343 349 349 347 344 345 348 349 347 345 342 347
324 323 324 323 325 326 329 331 348 349 347 350 349 354 354 353 350 347 345 344 342 342 342 343 346 344 345 347 343 348 347 347 340 347 348 349 347 348 349 348 349 349 345 343
324 325 326 324 324 325 326 326 344 350 348 348 349 352 347 350 352 348 346 345 343 343 343 343 344 343 345 347 344 347 348 348 339 345 348 349 349 346 347 345 346 350 348 347
323 325 326 324 324 324 323 327 333 347 345 358 353 355 345 349 355 350 347 346 345 345 344 343 343 342 344 346 345 345 346 348 340 347 347 350 348 347 346 348 347 351 349 348
323 323 323 325 325 325 325 328 342 342 343 346 349 354 346 347 353 353 352 349 347 345 346 342 341 341 342 343 343 343 345 345 347 349 348 346 345 344 352 350 350 349 350 350
323 325 323 324 326 325 327 328 339 341 341 345 340 350 352 351 353 346 349 353 350 349 346 344 342 340 342 341 342 343 341 341 347 350 348 346 343 347 349 351 347 347 346 347
324 325 324 325 325 325 328 330 330 339 341 342 334 344 351 350 345 342 342 341 351 351 349 346 343 342 342 342 343 344 343 338 344 349 349 348 348 346 348 348 345 346 344 345
325 326 325 326 326 326 326 328 330 339 339 338 339 353 349 343 346 345 343 344 347 348 347 345 345 344 344 343 344 343 342 334 335 344 346 347 348 349 349 348 349 347 350 347
328 327 327 325 326 325 327 329 327 329 332 330 345 345 345 341 341 348 341 345 347 343 345 349 348 347 347 345 344 343 339 333 335 336 340 343 344 342 348 345 349 349 350 350
326 326 327 327 326 327 331 331 330 329 335 335 345 345 346 350 354 353 352 352 350 347 347 348 348 349 347 348 346 347 342 336 339 339 339 339 340 342 344 346 346 347 350 350
323 325 327 327 328 329 330 329 330 328 332 332 347 349 347 351 348 347 346 347 348 344 346 346 340 344 347 345 349 350 347 346 341 341 340 341 341 342 344 348 351 346 349 350
325 324 324 326 325 326 327 329 329 329 332 342 345 346 344 346 343 342 341 341 344 344 344 341 338 337 339 340 344 347 346 349 348 347 347 344 342 342 343 345 346 350 347 347
323 324 327 327 324 324 324 324 323 324 328 338 338 340 344 342 341 341 340 339 340 342 342 342 344 346 345 339 339 341 341 344 348 349 349 349 351 349 346 344 346 347 348 342
322 323 325 326 326 326 323 324 324 323 326 334 340 348 346 343 342 340 337 336 335 336 337 340 338 338 339 343 345 345 338 341 342 342 340 349 350 351 351 347 349 347 350 350
321 324 324 325 326 322 322 324 324 325 333 337 335 344 342 339 337 335 333 332 331 330 329 329 330 335 336 336 339 342 345 347 347 343 341 341 346 350 349 350 351 352 353 352
320 324 322 324 324 322 322 322 324 325 335 334 340 341 338 336 335 333 332 331 330 328 327 326 327 325 330 332 335 333 337 343 347 348 348 344 342 337 339 349 350 351 353 354
323 325 326 323 323 323 322 322 322 334 338 339 340 336 335 334 332 331 328 327 327 325 325 325 325 326 325 326 328 331 332 332 336 344 347 348 347 344 339 338 346 350 352 352
320 324 323 323 324 324 323 321 322 326 332 333 334 332 332 329 327 326 325 325 324 323 322 322 322 323 323 323 325 326 328 328 330 330 334 342 348 347 345 345 339 348 350 353
317 319 321 323 322 323 324 322 321 326 333 332 331 330 329 325 323 322 322 321 320 320 319 319 320 321 322 322 323 325 326 326 326 327 327 327 328 338 343 347 349 349 349 350
317 319 321 323 325 323 321 320 319 322 326 329 327 326 325 324 324 322 320 319 318 318 318 318 318 318 319 319 319 321 323 324 325 325 325 324 322 324 329 331 335 341 344 346
318 319 321 321 323 324 321 318 318 321 327 326 325 324 324 320 322 320 319 318 317 317 316 316 317 317 317 317 317 319 320 321 322 322 322 325 323 321 322 321 322 323 327 337
324 322 321 320 322 325 321 318 323 323 319 320 321 320 320 319 318 318 317 317 316 315 315 316 316 316 317 317 317 317 317 317 318 318 318 320 321 324 323 321 320 319 323 332
322 322 324 323 324 321 321 321 320 318 318 317 317 318 318 317 317 316 315 315 314 314 313 314 315 315 315 314 313 313 313 312 311 312 314 315 316 318 321 323 322 321 320 322
320 320 320 321 322 321 320 319 318 317 316 316 315 315 314 314 315 314 315 314 313 313 313 312 311 311 311 311 310 310 310 310 310 311 314 316 320 320 320 323 324 323 322 321
321 319 319 320 320 319 318 317 317 317 315 315 314 313 313 313 313 313 313 313 312 312 312 311 309 309 309 309 308 308 309 309 309 310 312 314 317 320 321 322 324 325 323 323
319 320 319 319 319 319 318 315 314 315 315 313 313 313 313 313 312 312 312 312 312 311 311 310 308 307 306 306 307 308 308 307 307 307 308 310 311 313 314 318 321 322 322 323
Wind_Speed
13 4 7 11 12 16 13 8 11 14 10 13 5 7 9 17 24 26 27 28 30 32 29 29 28 28 24 22 24 21 20 16 24 19 15 13 9 7 7 11 11 10 12 15
4 8 12 14 16 17 17 14 4 8 14 7 10 12 10 18 20 26 27 30 31 31 34 31 33 29 28 25 25 20 21 18 18 23 18 13 11 10 8 9 10 9 8 11
8 12 18 16 13 15 13 9 6 7 15 9 13 7 6 5 17 26 25 23 31 31 34 34 33 30 29 26 25 24 21 19 19 21 13 13 15 14 13 10 9 12 8 13
10 19 14 14 11 11 9 10 7 20 17 7 11 5 4 6 12 18 25 27 31 30 28 34 33 33 31 27 22 26 24 19 22 18 16 12 16 12 12 10 11 13 10 11
9 12 13 13 14 11 10 9 15 11 8 9 6 6 7 9 4 15 18 26 33 34 29 31 34 34 33 28 23 21 25 22 25 22 16 16 15 15 14 13 15 14 10 11
14 19 11 8 10 10 11 7 6 6 4 7 11 18 9 11 16 13 14 18 28 31 37 31 33 34 34 29 26 24 24 24 28 23 20 19 14 13 17 17 12 13 12 12
10 12 8 10 4 6 6 1 3 2 3 7 12 5 4 14 15 9 9 19 25 28 34 31 35 36 35 35 29 25 25 24 30 26 22 21 16 12 18 14 10 13 12 14
6 5 9 4 4 5 7 6 4 4 4 9 5 5 5 16 30 34 34 28 24 22 29 31 33 32 35 37 31 24 25 24 29 29 24 20 18 16 10 13 15 11 11 9
4 9 5 8 6 9 8 7 9 4 5 3 4 5 6 17 12 12 22 11 16 22 13 14 18 17 22 36 33 23 24 24 26 29 28 24 21 18 15 14 14 13 13 15
6 5 8 11 11 5 5 1 5 2 2 2 4 5 8 17 17 16 20 23 19 11 12 12 9 11 12 14 17 29 26 26 24 25 27 26 26 23 17 16 15 18 17 15
6 0 8 3 3 2 2 4 2 1 1 5 5 0 10 14 18 18 22 22 23 25 28 25 16 9 10 2 11 14 20 28 29 26 27 26 23 22 21 22 17 18 17 14
6 3 4 7 4 3 5 5 6 4 5 3 4 3 7 12 21 24 24 27 25 31 26 20 17 16 10 21 21 12 10 13 24 25 26 26 27 25 24 25 22 21 20 19
6 5 1 6 1 3 4 7 7 5 2 6 5 4 8 16 19 22 23 25 28 31 26 21 18 14 16 19 13 21 18 14 6 18 17 24 24 24 24 25 27 22 24 22
4 3 2 2 3 3 8 7 9 4 1 3 1 11 8 15 16 24 26 29 28 27 25 23 23 22 17 10 5 3 15 9 11 17 22 15 18 24 24 23 23 27 24 23
2 3 5 4 1 7 10 6 13 6 7 6 11 7 8 10 16 25 31 29 30 27 24 24 24 23 22 23 17 14 13 12 9 26 18 23 17 14 22 21 21 22 23 22
6 3 7 8 7 8 10 16 10 1 15 12 17 10 4 22 28 25 28 28 26 22 21 21 23 23 23 24 20 24 20 18 15 15 9 8 14 11 20 15 16 20 23 24
3 3 4 4 7 6 6 9 13 15 15 15 7 10 16 10 21 23 28 26 20 19 17 16 19 21 20 19 23 24 22 20 19 16 13 10 16 19 19 19 19 19 22 21
4 2 2 4 2 0 2 8 7 7 10 20 18 12 15 10 24 24 25 24 17 14 14 13 14 13 17 14 17 20 21 18 19 19 16 12 8 10 13 18 14 19 19 22
4 2 3 1 3 5 3 4 5 10 4 19 17 19 22 25 25 18 17 17 15 11 7 8 11 10 8 9 9 12 15 12 13 15 13 12 10 5 3 6 9 11 15 13
7 3 3 3 2 4 2 8 13 7 3 16 22 20 30 27 6 6 14 14 12 9 6 6 7 6 5 6 4 6 5 4 8 9 8 7 6 5 3 3 4 7 11 12
1 3 1 4 3 3 3 9 6 4 5 16 24 21 24 8 13 24 17 13 10 8 7 5 4 5 3 2 2 4 2 1 3 2 2 2 1 1 4 6 6 8 9 9
2 2 2 2 2 2 10 6 4 5 19 24 24 25 29 26 21 18 14 9 7 5 5 5 5 3 3 5 6 5 6 8 8 8 8 5 3 5 4 5 7 8 6 4
2 3 1 3 2 6 19 16 12 16 19 20 24 21 22 20 17 15 14 10 6 1 2 1 2 1 4 6 7 9 10 12 11 8 8 9 9 8 9 9 10 10 8 7
4 3 3 4 2 8 14 13 12 10 12 12 13 16 14 14 13 12 11 10 6 2 1 4 2 4 6 7 8 8 10 14 12 10 8 5 6 6 5 8 12 15 15 12
3 5 2 1 8 12 5 6 9 14 13 11 10 10 8 11 11 10 8 5 4 4 3 8 7 6 7 9 9 11 11 13 15 13 10 8 7 8 8 7 5 6 13 18
4 3 2 3 3 12 18 18 16 14 13 15 12 12 10 8 12 10 8 6 6 4 6 7 6 7 8 9 9 9 12 13 16 17 17 17 16 15 15 17 17 12 9 8
Wind_Direction
214 117 215 234 242 250 260 209 213 64 52 84 67 151 180 151 161 168 175 174 166 163 167 169 173 171 175 175 162 178 181 181 162 164 143 156 159 156 118 150 125 131 150 171
134 218 232 230 235 246 256 268 59 107 77 76 103 221 182 165 167 185 177 179 171 168 171 171 171 171 179 183 176 184 192 193 174 154 156 181 168 178 148 154 139 128 132 178
211 230 221 240 239 241 247 251 174 158 98 103 125 265 289 278 171 183 180 183 174 170 172 174 173 176 182 184 185 193 193 195 175 167 178 181 191 176 170 171 165 156 164 156
216 251 229 232 250 234 246 240 244 155 157 150 162 251 167 227 203 182 173 191 182 181 173 178 178 179 185 188 191 199 207 200 168 173 194 190 194 189 172 176 160 165 173 180
237 231 248 224 241 241 248 253 130 152 168 107 209 231 261 121 233 180 191 187 188 197 188 182 185 184 189 192 197 209 210 205 182 182 196 206 190 183 193 179 164 166 174 169
235 227 234 247 225 244 263 278 184 170 143 220 200 201 161 172 214 206 191 208 188 194 193 191 188 187 192 198 204 208 211 199 189 188 191 205 206 186 202 181 192 180 179 180
240 250 223 249 253 266 277 220 287 179 147 247 204 171 189 169 182 193 174 230 211 195 194 197 188 189 193 196 201 208 207 202 194 197 197 194 191 189 189 179 188 179 160 178
214 241 238 180 214 239 254 203 182 175 193 225 28 112 160 169 177 174 189 220 233 264 190 186 186 190 197 196 200 208 204 204 197 201 201 198 197 195 184 178 167 181 172 186
250 215 204 183 180 214 282 236 234 282 254 7 113 39 93 167 132 160 211 185 190 193 178 183 189 195 182 187 197 209 204 198 197 200 208 207 201 208 195 177 181 187 199 214
11 357 288 217 209 227 175 305 11 312 129 154 119 145 171 130 119 110 88 98 157 202 173 168 192 198 144 169 184 206 213 199 196 196 206 210 210 209 207 193 203 214 211 216
35 61 299 52 152 174 56 322 320 28 132 151 155 123 335 107 116 102 91 92 99 129 148 157 253 227 208 194 206 186 223 223 209 208 212 212 209 213 207 207 209 215 216 220
6 273 260 247 257 237 257 250 219 140 298 102 102 17 33 76 90 93 88 84 92 93 106 142 199 205 196 250 237 239 282 241 225 219 221 221 221 213 213 213 209 213 217 222
344 335 10 307 302 278 249 277 280 273 135 161 129 197 134 115 98 105 107 98 91 95 93 94 106 118 172 207 216 214 225 261 242 222 227 226 226 217 214 221 218 217 222 227
46 330 58 256 285 337 338 260 271 248 4 68 85 146 158 115 119 116 106 96 90 93 92 100 90 89 91 111 134 148 194 209 235 219 258 247 225 222 228 218 220 227 225 224
134 315 351 324 295 352 328 276 246 265 148 128 193 138 177 147 119 109 103 100 98 94 90 89 95 90 84 76 85 102 121 109 157 212 216 238 244 231 228 228 229 229 231 232
355 64 303 311 323 18 338 331 226 290 96 102 104 82 72 114 113 110 104 103 98 99 98 91 90 84 92 90 81 68 77 93 104 126 137 198 208 219 268 237 238 238 230 234
56 54 332 255 59 18 350 17 9 89 111 126 123 147 135 130 107 109 105 98 95 87 80 75 76 81 78 87 89 76 67 73 83 94 94 107 175 208 212 220 242 233 234 233
8 24 16 292 14 97 290 31 355 65 126 108 119 125 111 111 104 108 110 110 98 90 79 78 64 58 64 53 82 90 76 65 69 73 81 96 114 170 226 222 241 249 245 227
330 49 347 125 304 286 258 58 14 103 29 141 134 137 142 117 103 85 103 104 106 100 94 76 87 72 79 58 59 78 76 78 82 74 66 71 78 112 181 219 249 260 263 252
353 102 110 342 301 237 185 41 22 45 95 141 131 142 135 133 133 157 125 121 112 102 103 89 73 65 62 40 46 71 68 56 70 72 77 76 67 58 48 15 318 285 277 275
18 13 306 265 246 52 33 43 340 104 220 135 137 139 138 94 117 135 132 111 116 92 75 82 97 74 52 10 5 122 164 337 351 347 95 74 92 13 355 355 349 334 319 302
328 179 231 291 328 121 5 35 63 133 80 92 106 118 108 114 115 116 115 115 108 112 105 80 78 68 336 313 308 314 319 317 293 284 290 298 301 299 301 310 321 332 330 317
4 109 161 106 146 84 77 97 92 94 94 91 102 112 117 127 132 132 134 136 131 175 269 220 117 275 303 328 335 337 341 328 319 309 281 283 297 312 308 314 319 313 317 313
322 126 109 46 60 80 110 115 111 110 108 117 111 118 120 128 133 139 142 139 141 104 355 318 328 359 356 338 343 341 333 335 352 353 339 324 316 305 302 321 325 329 311 302
237 36 356 166 129 143 166 131 125 156 142 138 141 142 131 143 143 145 146 145 170 201 292 297 309 320 320 330 334 341 336 333 346 355 353 337 301 291 288 277 323 305 303 303
16 12 109 236 281 195 180 173 170 154 161 165 157 159 156 160 165 167 154 177 202 244 250 288 300 317 329 345 0 357 344 344 342 339 336 334 329 320 304 292 274 251 277 288